This is the latest recevied weather packets stored in our database for station/object N7WSS. If no packets are shown the sender has not sent any weather packets the latest 10 day(s).
| Time | Temp. | Humidity | Pressure | Rain* | Wind** | Luminosity | Snow |
|---|---|---|---|---|---|---|---|
| 1777356609 | 16.67° C | 33% | 1013.2 hPa | 0 mm | - | - | - |
| 1777356306 | 16.67° C | 33% | 1013.2 hPa | 0 mm | - | - | - |
| 1777356002 | 17.22° C | 34% | 1013.3 hPa | 0 mm | - | - | - |
| 1777355700 | 17.22° C | 34% | 1012.9 hPa | 0 mm | - | - | - |
| 1777355396 | 17.22° C | 33% | 1013.1 hPa | 0 mm | - | - | - |
| 1777355092 | 17.78° C | 33% | 1013.1 hPa | 0 mm | - | - | - |
| 1777354789 | 17.78° C | 33% | 1013.1 hPa | 0 mm | - | - | - |
| 1777354484 | 17.78° C | 32% | 1012.9 hPa | 0 mm | - | - | - |
| 1777354182 | 17.78° C | 32% | 1013 hPa | 0 mm | - | - | - |
| 1777353878 | 18.33° C | 32% | 1013 hPa | 0 mm | - | - | - |
| 1777353575 | 18.33° C | 32% | 1012.9 hPa | 0 mm | - | - | - |
| 1777353274 | 18.33° C | 31% | 1013 hPa | 0 mm | - | - | - |
| 1777352971 | 18.33° C | 31% | 1012.9 hPa | 0 mm | - | - | - |
| 1777352669 | 18.33° C | 30% | 1013 hPa | 0 mm | - | - | - |
| 1777352367 | 18.89° C | 29% | 1012.8 hPa | 0 mm | - | - | - |
| 1777352064 | 18.89° C | 29% | 1012.8 hPa | 0 mm | - | - | - |
| 1777351761 | 19.44° C | 28% | 1012.8 hPa | 0 mm | - | - | - |
| 1777351459 | 18.89° C | 28% | 1012.8 hPa | 0 mm | - | - | - |
| 1777351157 | 18.89° C | 27% | 1012.8 hPa | 0 mm | - | - | - |
| 1777350856 | 18.89° C | 26% | 1012.8 hPa | 0 mm | - | - | - |
| 1777350556 | 19.44° C | 25% | 1012.8 hPa | 0 mm | - | - | - |
| 1777350254 | 19.44° C | 25% | 1012.8 hPa | 0 mm | - | - | - |
| 1777349950 | 19.44° C | 24% | 1012.7 hPa | 0 mm | - | - | - |
| 1777349648 | 20° C | 24% | 1012.4 hPa | 0 mm | - | - | - |
| 1777349346 | 20° C | 23% | 1012.5 hPa | 0 mm | - | - | - |
* Rain latest hour (hover to see other rain measurements)
** Current wind speed in m/s (hover to see current wind gust speed)